Location: 81360 Arifat, France
(43.7204°N, 2.3408°E)
Time: 03:45:06
(UTC+02:00)

Envisat - Pass Details

Date: 02 October 2021
Orbit: 764 x 766 km, 98.2° (Epoch: 17 October)

Event Time Altitude Azimuth Distance (km) Brightness Sun altitude
Rises 06:36:43 0° 18° (NNE) 3,239 6.6 -13.9°
Reaches altitude 10° 06:39:07 10° 24° (NNE) 2,308 5.9 -13.5°
Maximum altitude 06:44:02 49° 99° (E) 981 4.0 -12.6°
Drops below altitude 10° 06:48:56 10° 174° (S) 2,292 5.5 -11.7°
Sets 06:51:17 0° 180° (S) 3,213 6.2 -11.3°
